Time,TemperatureF,DewpointF,PressureIn,WindDirection,WindDirectionDegrees,WindSpeedMPH,WindSpeedGustMPH,Humidity,HourlyPrecipIn,Conditions,Clouds,dailyrainin,SolarRadiationWatts/m^2,SoftwareType,DateUTC
2013-01-04 00:00:00,10.9,9.3,30.01,WNW,294,0.0,0.0,93,0.00,CLR,,0.00,0.0,WeatherDisplay:10.37,2013-01-04 05:00:00,
2013-01-04 00:01:00,10.9,9.3,30.01,WNW,294,0.0,0.0,93,0.00,CLR,,0.00,0.0,WeatherDisplay:10.37,2013-01-04 05:01:00,
2013-01-04 00:02:00,10.9,9.3,30.01,WNW,294,1.0,1.0,93,0.00,CLR,,0.00,0.0,WeatherDisplay:10.37,2013-01-04 05:02:00,
2013-01-04 00:07:00,10.8,6.9,30.00,WNW,294,1.1,1.1,84,0.00,CLR,,0.00,0.0,WeatherDisplay:10.37,2013-01-04 05:07:00,
2013-01-04 00:12:00,10.8,6.9,30.00,WNW,294,2.3,2.3,84,0.00,CLR,,0.00,0.0,WeatherDisplay:10.37,2013-01-04 05:12:00,
2013-01-04 00:17:00,10.8,6.9,30.00,WNW,293,2.3,2.3,84,0.00,CLR,,0.00,0.0,WeatherDisplay:10.37,2013-01-04 05:17:00,
2013-01-04 00:22:00,10.7,6.8,30.00,WNW,293,1.1,1.1,84,0.00,CLR,,0.00,0.0,WeatherDisplay:10.37,2013-01-04 05:22:00,
2013-01-04 00:27:00,10.7,6.8,30.00,WNW,293,3.5,3.5,84,0.00,CLR,,0.00,0.0,WeatherDisplay:10.37,2013-01-04 05:27:00,
2013-01-04 00:32:00,10.8,6.9,29.99,WNW,293,1.1,1.1,84,0.00,CLR,,0.00,0.0,WeatherDisplay:10.37,2013-01-04 05:32:00,
2013-01-04 00:37:00,10.9,7.0,29.99,WNW,293,1.0,1.0,84,0.00,CLR,,0.00,0.0,WeatherDisplay:10.37,2013-01-04 05:37:00,
2013-01-04 00:42:00,11.0,7.4,29.99,WNW,293,2.3,2.3,85,0.00,CLR,,0.00,0.0,WeatherDisplay:10.37,2013-01-04 05:42:00,
2013-01-04 00:47:00,11.0,7.4,29.99,WNW,293,0.0,0.0,85,0.00,CLR,,0.00,0.0,WeatherDisplay:10.37,2013-01-04 05:47:00,
2013-01-04 00:52:00,11.1,7.5,29.99,WNW,293,0.0,0.4,85,0.00,CLR,,0.00,0.0,WeatherDisplay:10.37,2013-01-04 05:52:00,
2013-01-04 00:57:00,11.2,7.6,29.99,WNW,293,1.1,0.0,85,0.00,CLR,,0.00,0.0,WeatherDisplay:10.37,2013-01-04 05:57:00,
2013-01-04 01:02:00,11.2,7.8,29.99,WNW,293,2.3,0.0,86,0.00,CLR,,0.00,0.0,WeatherDisplay:10.37,2013-01-04 06:02:00,
2013-01-04 01:07:00,11.3,7.9,29.99,WNW,293,1.1,1.1,86,0.00,CLR,,0.00,0.0,WeatherDisplay:10.37,2013-01-04 06:07:00,
2013-01-04 01:12:00,11.3,7.9,29.98,WNW,293,2.3,2.3,86,0.00,CLR,,0.00,0.0,WeatherDisplay:10.37,2013-01-04 06:12:00,
2013-01-04 01:17:00,11.3,7.9,29.98,WNW,293,2.3,2.3,86,0.00,CLR,,0.00,0.0,WeatherDisplay:10.37,2013-01-04 06:17:00,
2013-01-04 01:22:00,11.2,7.6,29.99,WNW,293,1.0,1.0,85,0.00,CLR,,0.00,0.0,WeatherDisplay:10.37,2013-01-04 06:22:00,
2013-01-04 01:27:00,11.1,7.5,29.98,WNW,293,2.3,0.0,85,0.00,CLR,,0.00,0.0,WeatherDisplay:10.37,2013-01-04 06:27:00,
2013-01-04 01:32:00,11.0,7.6,29.98,WNW,293,2.3,2.3,86,0.00,CLR,,0.00,0.0,WeatherDisplay:10.37,2013-01-04 06:32:00,
2013-01-04 01:37:00,11.0,7.6,29.98,WNW,293,0.0,0.0,86,0.00,CLR,,0.00,0.0,WeatherDisplay:10.37,2013-01-04 06:37:00,
2013-01-04 01:42:00,10.9,7.5,29.99,WNW,293,2.3,2.3,86,0.00,CLR,,0.00,0.0,WeatherDisplay:10.37,2013-01-04 06:42:00,
2013-01-04 01:47:00,10.9,7.5,29.99,WNW,293,2.3,2.3,86,0.00,CLR,,0.00,0.0,WeatherDisplay:10.37,2013-01-04 06:47:00,
2013-01-04 01:53:00,10.9,7.5,29.99,WNW,293,1.1,1.1,86,0.00,CLR,,0.00,0.0,WeatherDisplay:10.37,2013-01-04 06:53:00,
2013-01-04 01:58:00,11.0,7.6,29.99,WNW,293,3.5,3.5,86,0.00,CLR,,0.00,0.0,WeatherDisplay:10.37,2013-01-04 06:58:00,
2013-01-04 02:03:00,11.0,7.6,29.99,WNW,293,2.3,2.3,86,0.00,CLR,,0.00,0.0,WeatherDisplay:10.37,2013-01-04 07:03:00,
2013-01-04 02:08:00,11.0,7.6,29.99,WNW,293,2.3,2.3,86,0.00,CLR,,0.00,0.0,WeatherDisplay:10.37,2013-01-04 07:08:00,
2013-01-04 02:13:00,11.0,7.9,29.99,WNW,293,0.0,0.0,87,0.00,CLR,,0.00,0.0,WeatherDisplay:10.37,2013-01-04 07:13:00,
2013-01-04 02:18:00,11.0,7.9,29.99,WNW,293,3.5,3.5,87,0.00,CLR,,0.00,0.0,WeatherDisplay:10.37,2013-01-04 07:18:00,
2013-01-04 02:23:00,11.0,7.9,29.99,WNW,293,2.3,2.3,87,0.00,CLR,,0.00,0.0,WeatherDisplay:10.37,2013-01-04 07:23:00,
2013-01-04 02:28:00,11.1,8.0,29.99,WNW,293,2.0,2.0,87,0.00,CLR,,0.00,0.0,WeatherDisplay:10.37,2013-01-04 07:28:00,
2013-01-04 02:33:00,11.0,7.9,29.99,WNW,293,1.1,0.0,87,0.00,CLR,,0.00,0.0,WeatherDisplay:10.37,2013-01-04 07:33:00,
2013-01-04 02:38:00,11.0,7.9,29.99,WNW,293,2.3,2.3,87,0.00,CLR,,0.00,0.0,WeatherDisplay:10.37,2013-01-04 07:38:00,
2013-01-04 02:43:00,11.0,7.9,29.99,WNW,293,2.0,2.0,87,0.00,CLR,,0.00,0.0,WeatherDisplay:10.37,2013-01-04 07:43:00,
2013-01-04 02:48:00,11.0,7.9,29.99,WNW,293,0.0,0.0,87,0.00,CLR,,0.00,0.0,WeatherDisplay:10.37,2013-01-04 07:48:00,
2013-01-04 02:53:00,11.0,8.1,29.99,WNW,293,0.0,0.0,88,0.00,CLR,,0.00,0.0,WeatherDisplay:10.37,2013-01-04 07:53:00,
2013-01-04 02:58:00,11.0,8.1,29.99,WNW,293,0.0,0.0,88,0.00,CLR,,0.00,0.0,WeatherDisplay:10.37,2013-01-04 07:58:00,
2013-01-04 03:03:00,10.9,8.0,29.99,WNW,293,0.0,0.2,88,0.00,CLR,,0.00,0.0,WeatherDisplay:10.37,2013-01-04 08:03:00,
2013-01-04 03:08:00,10.9,8.0,29.99,WNW,293,1.1,0.0,88,0.00,CLR,,0.00,0.0,WeatherDisplay:10.37,2013-01-04 08:08:00,
2013-01-04 03:13:00,11.0,8.1,29.98,WNW,293,1.1,1.1,88,0.00,CLR,,0.00,0.0,WeatherDisplay:10.37,2013-01-04 08:13:00,
2013-01-04 03:18:00,10.9,8.0,29.98,WNW,293,2.3,2.3,88,0.00,CLR,,0.00,0.0,WeatherDisplay:10.37,2013-01-04 08:18:00,
2013-01-04 03:23:00,10.9,8.0,29.98,WNW,293,1.1,1.1,88,0.00,CLR,,0.00,0.0,WeatherDisplay:10.37,2013-01-04 08:23:00,
2013-01-04 03:28:00,10.9,8.0,29.98,WNW,293,2.3,2.3,88,0.00,CLR,,0.00,0.0,WeatherDisplay:10.37,2013-01-04 08:28:00,
2013-01-04 03:33:00,10.9,8.0,29.98,WNW,293,1.1,1.1,88,0.00,CLR,,0.00,0.0,WeatherDisplay:10.37,2013-01-04 08:33:00,
2013-01-04 03:38:00,10.8,7.9,29.98,WNW,293,0.0,0.8,88,0.00,CLR,,0.00,0.0,WeatherDisplay:10.37,2013-01-04 08:38:00,
2013-01-04 03:43:00,10.8,7.9,29.97,WNW,293,2.3,0.0,88,0.00,CLR,,0.00,0.0,WeatherDisplay:10.37,2013-01-04 08:43:00,
2013-01-04 03:48:00,10.7,7.8,29.97,WNW,293,2.0,2.0,88,0.00,CLR,,0.00,0.0,WeatherDisplay:10.37,2013-01-04 08:48:00,
2013-01-04 03:53:00,10.6,7.7,29.97,WNW,293,0.0,0.0,88,0.00,CLR,,0.00,0.0,WeatherDisplay:10.37,2013-01-04 08:53:00,
2013-01-04 03:58:00,10.5,7.6,29.97,WNW,293,1.1,0.0,88,0.00,CLR,,0.00,0.0,WeatherDisplay:10.37,2013-01-04 08:58:00,
2013-01-04 04:03:00,10.4,7.6,29.97,WNW,293,1.1,1.1,88,0.00,CLR,,0.00,0.0,WeatherDisplay:10.37,2013-01-04 09:03:00,
2013-01-04 04:08:00,10.3,7.7,29.98,WNW,293,2.3,2.3,89,0.00,CLR,,0.00,0.0,WeatherDisplay:10.37,2013-01-04 09:08:00,
2013-01-04 04:13:00,10.2,7.6,29.97,WNW,293,1.1,1.1,89,0.00,CLR,,0.00,0.0,WeatherDisplay:10.37,2013-01-04 09:13:00,
2013-01-04 04:18:00,10.2,7.6,29.97,WNW,293,3.5,3.5,89,0.00,CLR,,0.00,0.0,WeatherDisplay:10.37,2013-01-04 09:18:00,
2013-01-04 04:23:00,10.2,7.6,29.97,WNW,293,1.1,1.1,89,0.00,CLR,,0.00,0.0,WeatherDisplay:10.37,2013-01-04 09:23:00,
2013-01-04 04:28:00,10.3,8.0,29.97,West,261,3.5,3.5,90,0.00,CLR,,0.00,0.0,WeatherDisplay:10.37,2013-01-04 09:28:00,
2013-01-04 04:33:00,10.4,8.0,29.97,West,261,1.0,1.0,90,0.00,CLR,,0.00,0.0,WeatherDisplay:10.37,2013-01-04 09:33:00,
2013-01-04 04:38:00,10.6,8.2,29.97,West,261,1.0,1.0,90,0.00,CLR,,0.00,0.0,WeatherDisplay:10.37,2013-01-04 09:38:00,
2013-01-04 04:43:00,10.7,8.3,29.97,West,261,3.5,3.5,90,0.00,CLR,,0.00,0.0,WeatherDisplay:10.37,2013-01-04 09:43:00,
2013-01-04 04:48:00,10.8,8.4,29.97,West,261,3.5,3.5,90,0.00,CLR,,0.00,0.0,WeatherDisplay:10.37,2013-01-04 09:48:00,
2013-01-04 04:53:00,11.0,8.9,29.97,West,261,0.0,0.0,91,0.00,CLR,,0.00,0.0,WeatherDisplay:10.37,2013-01-04 09:53:00,
2013-01-04 04:58:00,11.1,9.0,29.97,West,261,2.0,2.0,91,0.00,CLR,,0.00,0.0,WeatherDisplay:10.37,2013-01-04 09:58:00,
2013-01-04 05:03:00,11.3,9.2,29.97,West,261,2.3,2.3,91,0.00,CLR,,0.00,0.0,WeatherDisplay:10.37,2013-01-04 10:03:00,
2013-01-04 05:08:00,11.4,9.3,29.97,West,261,3.5,3.5,91,0.00,CLR,,0.00,0.0,WeatherDisplay:10.37,2013-01-04 10:08:00,
2013-01-04 05:13:00,11.6,9.5,29.97,West,261,3.5,0.0,91,0.00,CLR,,0.00,0.0,WeatherDisplay:10.37,2013-01-04 10:13:00,
2013-01-04 05:18:00,11.9,9.8,29.97,West,261,2.3,2.3,91,0.00,CLR,,0.00,0.0,WeatherDisplay:10.37,2013-01-04 10:18:00,
2013-01-04 05:23:00,12.1,10.2,29.97,West,261,1.0,1.0,92,0.00,CLR,,0.00,0.0,WeatherDisplay:10.37,2013-01-04 10:23:00,
2013-01-04 05:28:00,12.3,10.4,29.97,West,261,1.1,1.1,92,0.00,CLR,,0.00,0.0,WeatherDisplay:10.37,2013-01-04 10:28:00,
2013-01-04 05:33:00,12.6,10.7,29.97,West,261,2.3,2.3,92,0.00,CLR,,0.00,0.0,WeatherDisplay:10.37,2013-01-04 10:33:00,
2013-01-04 05:38:00,12.9,11.0,29.97,West,261,0.0,0.0,92,0.00,CLR,,0.00,0.0,WeatherDisplay:10.37,2013-01-04 10:38:00,
2013-01-04 05:43:00,13.3,11.4,29.97,West,261,2.3,2.3,92,0.00,CLR,,0.00,0.0,WeatherDisplay:10.37,2013-01-04 10:43:00,
2013-01-04 05:48:00,13.6,12.0,29.97,West,261,2.3,2.3,93,0.00,CLR,,0.00,0.0,WeatherDisplay:10.37,2013-01-04 10:48:00,
2013-01-04 05:53:00,13.9,12.3,29.97,West,261,2.3,2.3,93,0.00,CLR,,0.00,0.0,WeatherDisplay:10.37,2013-01-04 10:53:00,
2013-01-04 05:58:00,14.3,12.6,29.97,West,261,3.5,3.5,93,0.00,CLR,,0.00,0.0,WeatherDisplay:10.37,2013-01-04 10:58:00,
2013-01-04 06:03:00,14.7,13.0,29.97,West,261,2.3,2.3,93,0.00,CLR,,0.00,0.0,WeatherDisplay:10.37,2013-01-04 11:03:00,
2013-01-04 06:08:00,15.0,13.3,29.97,West,261,3.5,3.5,93,0.00,CLR,,0.00,0.0,WeatherDisplay:10.37,2013-01-04 11:08:00,
2013-01-04 06:13:00,15.4,13.7,29.96,West,261,3.5,3.5,93,0.00,CLR,,0.00,0.0,WeatherDisplay:10.37,2013-01-04 11:13:00,
2013-01-04 06:18:00,15.7,14.0,29.96,West,261,3.5,3.5,93,0.00,CLR,,0.00,0.0,WeatherDisplay:10.37,2013-01-04 11:18:00,
2013-01-04 06:23:00,16.0,14.3,29.97,West,261,3.5,3.5,93,0.00,CLR,,0.00,0.0,WeatherDisplay:10.37,2013-01-04 11:23:00,
2013-01-04 06:28:00,16.3,14.6,29.97,West,261,3.5,3.5,93,0.00,CLR,,0.00,0.0,WeatherDisplay:10.37,2013-01-04 11:28:00,
2013-01-04 06:33:00,16.7,15.3,29.96,West,261,2.3,2.3,94,0.00,CLR,,0.00,0.0,WeatherDisplay:10.37,2013-01-04 11:33:00,
2013-01-04 06:38:00,17.0,15.6,29.97,West,261,2.3,2.3,94,0.00,CLR,,0.00,0.0,WeatherDisplay:10.37,2013-01-04 11:38:00,
2013-01-04 06:43:00,17.2,15.5,29.97,West,261,3.5,3.5,93,0.00,CLR,,0.00,0.0,WeatherDisplay:10.37,2013-01-04 11:43:00,
2013-01-04 06:48:00,17.5,15.8,29.97,West,261,1.1,0.0,93,0.00,CLR,,0.00,0.0,WeatherDisplay:10.37,2013-01-04 11:48:00,
2013-01-04 06:53:00,17.7,16.3,29.97,West,260,2.3,2.3,94,0.00,CLR,,0.00,0.0,WeatherDisplay:10.37,2013-01-04 11:53:00,
2013-01-04 06:58:00,18.0,16.6,29.97,West,261,1.1,1.1,94,0.00,CLR,,0.00,0.0,WeatherDisplay:10.37,2013-01-04 11:58:00,
2013-01-04 07:03:00,18.1,16.7,29.97,West,261,2.3,2.3,94,0.00,CLR,,0.00,0.0,WeatherDisplay:10.37,2013-01-04 12:03:00,
2013-01-04 07:08:00,18.3,16.9,29.97,West,260,3.0,3.0,94,0.00,CLR,,0.00,0.0,WeatherDisplay:10.37,2013-01-04 12:08:00,
2013-01-04 07:13:00,18.5,17.1,29.97,West,259,0.0,0.2,94,0.00,CLR,,0.00,0.0,WeatherDisplay:10.37,2013-01-04 12:13:00,
2013-01-04 07:18:00,18.6,17.2,29.97,West,260,3.5,3.5,94,0.00,CLR,,0.00,0.0,WeatherDisplay:10.37,2013-01-04 12:18:00,
2013-01-04 07:23:00,18.7,17.3,29.97,West,260,1.1,0.0,94,0.00,CLR,,0.00,0.0,WeatherDisplay:10.37,2013-01-04 12:23:00,
2013-01-04 07:28:00,18.7,17.3,29.97,West,259,2.3,2.3,94,0.00,CLR,,0.00,0.0,WeatherDisplay:10.37,2013-01-04 12:28:00,
2013-01-04 07:33:00,18.9,17.5,29.97,West,259,1.1,1.1,94,0.00,CLR,,0.00,0.0,WeatherDisplay:10.37,2013-01-04 12:33:00,
2013-01-04 07:38:00,19.1,17.7,29.97,West,259,2.3,2.3,94,0.00,CLR,,0.00,5.0,WeatherDisplay:10.37,2013-01-04 12:38:00,
2013-01-04 07:43:00,19.2,17.8,29.97,SW,231,3.5,3.5,94,0.00,CLR,,0.00,0.0,WeatherDisplay:10.37,2013-01-04 12:43:00,
2013-01-04 07:48:00,19.4,18.0,29.96,WSW,237,3.5,3.5,94,0.00,CLR,,0.00,0.0,WeatherDisplay:10.37,2013-01-04 12:48:00,
2013-01-04 07:53:00,19.5,18.1,29.96,SW,234,5.8,5.8,94,0.00,CLR,,0.00,5.0,WeatherDisplay:10.37,2013-01-04 12:53:00,
2013-01-04 07:58:00,19.8,18.4,29.96,SW,234,5.8,5.8,94,0.00,CLR,,0.00,5.0,WeatherDisplay:10.37,2013-01-04 12:58:00,
2013-01-04 08:03:00,19.8,18.4,29.96,SW,229,3.5,3.5,94,0.00,CLR,,0.00,7.0,WeatherDisplay:10.37,2013-01-04 13:03:00,
2013-01-04 08:08:00,20.1,18.7,29.96,SW,229,5.8,5.8,94,0.00,CLR,,0.00,7.0,WeatherDisplay:10.37,2013-01-04 13:08:00,
2013-01-04 08:13:00,20.4,18.9,29.96,SW,228,3.0,3.0,94,0.00,CLR,,0.00,9.0,WeatherDisplay:10.37,2013-01-04 13:13:00,
2013-01-04 08:18:00,20.7,19.2,29.95,SW,228,3.5,3.5,94,0.00,CLR,,0.00,12.0,WeatherDisplay:10.37,2013-01-04 13:18:00,
2013-01-04 08:23:00,20.9,19.4,29.95,SW,229,3.5,3.5,94,0.00,CLR,,0.00,9.0,WeatherDisplay:10.37,2013-01-04 13:23:00,
2013-01-04 08:28:00,21.1,19.6,29.95,SW,228,3.5,3.5,94,0.00,CLR,,0.00,21.0,WeatherDisplay:10.37,2013-01-04 13:28:00,
2013-01-04 08:33:00,21.3,19.8,29.95,SW,223,10.4,10.4,94,0.00,CLR,,0.00,33.0,WeatherDisplay:10.37,2013-01-04 13:33:00,
2013-01-04 08:38:00,21.6,20.1,29.95,SW,223,4.6,4.6,94,0.00,CLR,,0.00,25.0,WeatherDisplay:10.37,2013-01-04 13:38:00,
2013-01-04 08:43:00,21.8,20.3,29.95,WSW,255,3.5,3.5,94,0.00,CLR,,0.00,33.0,WeatherDisplay:10.37,2013-01-04 13:43:00,
2013-01-04 08:48:00,22.0,20.5,29.95,SW,228,5.8,5.8,94,0.00,CLR,,0.00,40.0,WeatherDisplay:10.37,2013-01-04 13:48:00,
2013-01-04 08:53:00,22.1,20.6,29.95,SW,228,4.6,4.6,94,0.00,CLR,,0.00,54.0,WeatherDisplay:10.37,2013-01-04 13:53:00,
2013-01-04 08:58:00,22.4,20.9,29.95,SW,228,6.9,6.9,94,0.00,CLR,,0.00,67.0,WeatherDisplay:10.37,2013-01-04 13:58:00,
2013-01-04 09:03:00,22.7,21.2,29.95,SW,228,7.0,7.0,94,0.00,OVC,,0.00,56.0,WeatherDisplay:10.37,2013-01-04 14:03:00,
2013-01-04 09:08:00,23.0,21.5,29.94,SW,214,6.0,6.0,94,0.00,OVC,,0.00,67.0,WeatherDisplay:10.37,2013-01-04 14:08:00,
2013-01-04 09:13:00,23.4,21.9,29.94,WSW,240,11.5,11.5,94,0.00,OVC,,0.00,79.0,WeatherDisplay:10.37,2013-01-04 14:13:00,
2013-01-04 09:18:00,23.9,22.2,29.94,SW,233,3.5,3.5,93,0.00,OVC,,0.00,81.0,WeatherDisplay:10.37,2013-01-04 14:18:00,
2013-01-04 09:23:00,24.3,22.3,29.94,SSW,205,10.4,10.4,92,0.00,OVC,,0.00,91.0,WeatherDisplay:10.37,2013-01-04 14:23:00,
2013-01-04 09:28:00,24.7,22.2,29.94,WSW,251,8.1,8.1,90,0.00,OVC,,0.00,81.0,WeatherDisplay:10.37,2013-01-04 14:28:00,
2013-01-04 09:33:00,25.1,22.3,29.94,North,9,5.8,5.8,89,0.00,OVC,,0.00,90.0,WeatherDisplay:10.37,2013-01-04 14:33:00,
2013-01-04 09:38:00,25.5,22.2,29.94,WNW,284,15.0,15.0,87,0.00,OVC,,0.00,97.0,WeatherDisplay:10.37,2013-01-04 14:38:00,
2013-01-04 09:43:00,25.9,22.0,29.94,NW,317,9.2,9.2,85,0.00,OVC,,0.00,100.0,WeatherDisplay:10.37,2013-01-04 14:43:00,
2013-01-04 09:48:00,26.3,21.6,29.95,WNW,286,9.2,9.2,82,0.00,OVC,,0.00,93.0,WeatherDisplay:10.37,2013-01-04 14:48:00,
2013-01-04 09:53:00,26.5,21.2,29.94,West,267,8.1,8.1,80,0.00,OVC,,0.00,70.0,WeatherDisplay:10.37,2013-01-04 14:53:00,
2013-01-04 09:58:00,26.6,21.0,29.94,West,260,11.5,11.5,79,0.00,OVC,,0.00,86.0,WeatherDisplay:10.37,2013-01-04 14:58:00,
2013-01-04 10:03:00,26.8,20.9,29.94,West,267,6.9,6.9,78,0.00,OVC,,0.00,76.0,WeatherDisplay:10.37,2013-01-04 15:03:00,
2013-01-04 10:08:00,26.9,20.7,29.94,West,261,6.9,6.9,77,0.00,OVC,,0.00,102.0,WeatherDisplay:10.37,2013-01-04 15:08:00,
2013-01-04 10:13:00,27.1,20.8,29.94,WSW,250,10.4,10.4,77,0.00,OVC,,0.00,169.0,WeatherDisplay:10.37,2013-01-04 15:13:00,
2013-01-04 10:18:00,27.5,21.2,29.93,SSW,207,12.0,12.0,77,0.00,OVC,,0.00,174.0,WeatherDisplay:10.37,2013-01-04 15:18:00,
2013-01-04 10:23:00,27.8,21.2,29.93,SW,227,11.5,11.5,76,0.00,OVC,,0.00,176.0,WeatherDisplay:10.37,2013-01-04 15:23:00,
2013-01-04 10:28:00,28.3,21.1,29.92,WSW,246,11.5,11.5,74,0.00,OVC,,0.00,214.0,WeatherDisplay:10.37,2013-01-04 15:28:00,
2013-01-04 10:33:00,28.9,21.3,29.92,WNW,288,11.5,11.5,73,0.00,OVC,,0.00,141.0,WeatherDisplay:10.37,2013-01-04 15:33:00,
2013-01-04 10:38:00,29.0,21.1,29.92,West,279,6.9,6.9,72,0.00,OVC,,0.00,134.0,WeatherDisplay:10.37,2013-01-04 15:38:00,
2013-01-04 10:43:00,29.2,21.3,29.92,SSW,192,4.6,4.6,72,0.00,OVC,,0.00,144.0,WeatherDisplay:10.37,2013-01-04 15:43:00,
2013-01-04 10:48:00,29.3,21.4,29.91,West,265,9.2,9.2,72,0.00,OVC,,0.00,204.0,WeatherDisplay:10.37,2013-01-04 15:48:00,
2013-01-04 10:53:00,29.5,21.3,29.92,SW,236,4.6,4.6,71,0.00,OVC,,0.00,178.0,WeatherDisplay:10.37,2013-01-04 15:53:00,
2013-01-04 10:58:00,29.7,21.4,29.91,WSW,258,12.7,12.7,71,0.00,OVC,,0.00,144.0,WeatherDisplay:10.37,2013-01-04 15:58:00,
2013-01-04 11:03:00,29.8,21.2,29.90,WNW,283,16.1,16.1,70,0.00,OVC,,0.00,200.0,WeatherDisplay:10.37,2013-01-04 16:03:00,
2013-01-04 11:08:00,30.2,21.6,29.90,South,180,3.5,3.5,70,0.00,OVC,,0.00,197.0,WeatherDisplay:10.37,2013-01-04 16:08:00,
2013-01-04 11:13:00,30.5,21.9,29.89,West,275,3.5,3.5,70,0.00,OVC,,0.00,151.0,WeatherDisplay:10.37,2013-01-04 16:13:00,
2013-01-04 11:18:00,30.7,21.7,29.89,WSW,240,16.1,16.1,69,0.00,OVC,,0.00,163.0,WeatherDisplay:10.37,2013-01-04 16:18:00,
2013-01-04 11:24:00,30.9,21.6,29.88,South,169,9.2,9.2,68,0.00,OVC,,0.00,179.0,WeatherDisplay:10.37,2013-01-04 16:24:00,
2013-01-04 11:29:00,31.3,22.0,29.88,WSW,254,16.0,16.0,68,0.00,OVC,,0.00,162.0,WeatherDisplay:10.37,2013-01-04 16:29:00,
2013-01-04 11:34:00,31.6,21.9,29.88,West,275,15.0,15.0,67,0.00,OVC,,0.00,111.0,WeatherDisplay:10.37,2013-01-04 16:34:00,
2013-01-04 11:39:00,31.8,22.1,29.87,SSW,206,17.3,17.3,67,0.00,OVC,,0.00,105.0,WeatherDisplay:10.37,2013-01-04 16:39:00,
2013-01-04 11:44:00,31.9,21.8,29.86,WSW,238,10.4,10.4,66,0.00,OVC,,0.00,81.0,WeatherDisplay:10.37,2013-01-04 16:44:00,
2013-01-04 11:49:00,31.9,21.8,29.86,WSW,251,12.7,12.7,66,0.00,OVC,,0.00,186.0,WeatherDisplay:10.37,2013-01-04 16:49:00,
2013-01-04 11:54:00,31.9,21.5,29.86,SSW,204,15.0,15.0,65,0.00,OVC,,0.00,142.0,WeatherDisplay:10.37,2013-01-04 16:54:00,
2013-01-04 11:59:00,32.0,21.6,29.86,SW,234,9.2,9.2,65,0.00,OVC,,0.00,144.0,WeatherDisplay:10.37,2013-01-04 16:59:00,
2013-01-04 12:04:00,32.2,21.7,29.86,WSW,247,10.4,10.4,65,0.00,OVC,,0.00,111.0,WeatherDisplay:10.37,2013-01-04 17:04:00,
2013-01-04 12:09:00,32.4,21.6,29.85,West,260,13.8,13.8,64,0.00,OVC,,0.00,199.0,WeatherDisplay:10.37,2013-01-04 17:09:00,
2013-01-04 12:14:00,32.6,21.8,29.85,West,261,3.5,3.5,64,0.00,OVC,,0.00,98.0,WeatherDisplay:10.37,2013-01-04 17:14:00,
2013-01-04 12:19:00,32.8,21.6,29.84,WSW,252,9.2,9.2,63,0.00,OVC,,0.00,148.0,WeatherDisplay:10.37,2013-01-04 17:19:00,
2013-01-04 12:24:00,33.0,21.8,29.84,WSW,252,11.5,11.5,63,0.00,OVC,,0.00,192.0,WeatherDisplay:10.37,2013-01-04 17:24:00,
2013-01-04 12:29:00,33.3,21.7,29.84,WNW,296,16.1,16.1,62,0.00,CLR,,0.00,156.0,WeatherDisplay:10.37,2013-01-04 17:29:00,
2013-01-04 12:34:00,33.5,21.9,29.84,SW,223,10.4,10.4,62,0.00,CLR,,0.00,160.0,WeatherDisplay:10.37,2013-01-04 17:34:00,
2013-01-04 12:39:00,33.9,22.2,29.84,West,276,9.0,9.0,62,0.00,CLR,,0.00,236.0,WeatherDisplay:10.37,2013-01-04 17:39:00,
2013-01-04 12:44:00,34.1,22.4,29.84,WSW,250,10.4,10.4,62,0.00,CLR,,0.00,142.0,WeatherDisplay:10.37,2013-01-04 17:44:00,
2013-01-04 12:49:00,34.1,22.4,29.84,WSW,246,5.8,6.3,62,0.00,CLR,,0.00,111.0,WeatherDisplay:10.37,2013-01-04 17:49:00,
2013-01-04 12:54:00,33.9,22.6,29.83,SW,229,13.8,13.8,63,0.00,CLR,,0.00,169.0,WeatherDisplay:10.37,2013-01-04 17:54:00,
2013-01-04 12:59:00,33.9,22.2,29.83,SW,224,15.0,15.0,62,0.00,CLR,,0.00,272.0,WeatherDisplay:10.37,2013-01-04 17:59:00,
2013-01-04 13:04:00,34.1,22.8,29.83,SSW,205,16.1,16.1,63,0.01,RA,,0.01,234.0,WeatherDisplay:10.37,2013-01-04 18:04:00,
2013-01-04 13:09:00,34.3,23.0,29.83,WSW,238,11.5,11.5,63,0.01,RA,,0.01,155.0,WeatherDisplay:10.37,2013-01-04 18:09:00,
2013-01-04 13:14:00,34.5,23.2,29.83,NW,304,16.1,16.1,63,0.01,CLR,,0.01,165.0,WeatherDisplay:10.37,2013-01-04 18:14:00,
2013-01-04 13:19:00,34.5,23.2,29.82,SSW,210,11.5,11.5,63,0.01,CLR,,0.01,167.0,WeatherDisplay:10.37,2013-01-04 18:19:00,
2013-01-04 13:24:00,34.5,23.6,29.82,WSW,252,12.0,12.0,64,0.01,CLR,,0.01,169.0,WeatherDisplay:10.37,2013-01-04 18:24:00,
2013-01-04 13:29:00,34.5,22.8,29.82,WSW,242,10.4,10.4,62,0.01,CLR,,0.01,146.0,WeatherDisplay:10.37,2013-01-04 18:29:00,
2013-01-04 13:34:00,34.5,23.2,29.81,SW,236,11.5,11.5,63,0.01,CLR,,0.01,137.0,WeatherDisplay:10.37,2013-01-04 18:34:00,
2013-01-04 13:39:00,34.5,22.4,29.81,SW,226,11.5,11.5,61,0.01,FEW,,0.01,128.0,WeatherDisplay:10.37,2013-01-04 18:39:00,
2013-01-04 13:44:00,34.4,22.3,29.82,SW,235,9.2,9.2,61,0.01,FEW,,0.01,135.0,WeatherDisplay:10.37,2013-01-04 18:44:00,
2013-01-04 13:49:00,34.3,22.2,29.82,WSW,256,17.3,17.3,61,0.01,FEW,,0.01,134.0,WeatherDisplay:10.37,2013-01-04 18:49:00,
2013-01-04 13:54:00,34.1,22.0,29.82,SW,232,6.9,6.9,61,0.02,RA,,0.02,116.0,WeatherDisplay:10.37,2013-01-04 18:54:00,
2013-01-04 13:59:00,34.0,22.3,29.82,SW,219,11.5,11.5,62,0.02,RA,,0.02,111.0,WeatherDisplay:10.37,2013-01-04 18:59:00,
2013-01-04 14:04:00,34.0,22.3,29.81,WSW,237,19.6,19.6,62,0.01,SCT,,0.02,100.0,WeatherDisplay:10.37,2013-01-04 19:04:00,
2013-01-04 14:09:00,33.9,22.2,29.81,SW,221,9.0,9.0,62,0.01,BKN,,0.02,95.0,WeatherDisplay:10.37,2013-01-04 19:09:00,
2013-01-04 14:14:00,33.8,22.5,29.81,SW,231,11.5,11.5,63,0.01,BKN,,0.02,90.0,WeatherDisplay:10.37,2013-01-04 19:14:00,
2013-01-04 14:19:00,33.8,22.1,29.81,West,259,15.0,15.0,62,0.01,BKN,,0.02,84.0,WeatherDisplay:10.37,2013-01-04 19:19:00,
2013-01-04 14:24:00,33.7,22.1,29.82,West,263,12.7,12.7,62,0.01,BKN,,0.02,81.0,WeatherDisplay:10.37,2013-01-04 19:24:00,
2013-01-04 14:29:00,33.6,22.0,29.82,WSW,257,13.0,13.0,62,0.01,BKN,,0.02,76.0,WeatherDisplay:10.37,2013-01-04 19:29:00,
2013-01-04 14:34:00,33.6,22.3,29.82,WSW,257,6.9,6.9,63,0.01,BKN,,0.02,74.0,WeatherDisplay:10.37,2013-01-04 19:34:00,
2013-01-04 14:39:00,33.5,22.6,29.82,SW,221,9.2,9.2,64,0.01,BKN,,0.02,74.0,WeatherDisplay:10.37,2013-01-04 19:39:00,
2013-01-04 14:44:00,33.5,22.6,29.82,SW,234,9.2,9.2,64,0.01,BKN,,0.02,72.0,WeatherDisplay:10.37,2013-01-04 19:44:00,
2013-01-04 14:49:00,33.5,22.2,29.82,WSW,256,9.2,9.2,63,0.01,BKN,,0.02,67.0,WeatherDisplay:10.37,2013-01-04 19:49:00,
2013-01-04 14:54:00,33.4,21.8,29.82,WNW,297,12.7,12.7,62,0.00,BKN,,0.02,58.0,WeatherDisplay:10.37,2013-01-04 19:54:00,
2013-01-04 14:59:00,33.4,21.8,29.82,NW,304,12.7,12.7,62,0.00,BKN,,0.02,60.0,WeatherDisplay:10.37,2013-01-04 19:59:00,
2013-01-04 15:04:00,33.3,21.3,29.82,WSW,240,11.5,11.5,61,0.00,BKN,,0.02,63.0,WeatherDisplay:10.37,2013-01-04 20:04:00,
2013-01-04 15:09:00,33.2,21.2,29.82,West,269,10.4,10.4,61,0.00,BKN,,0.02,83.0,WeatherDisplay:10.37,2013-01-04 20:09:00,
2013-01-04 15:14:00,33.2,21.2,29.82,SW,232,10.0,10.0,61,0.00,BKN,,0.02,100.0,WeatherDisplay:10.37,2013-01-04 20:14:00,
2013-01-04 15:19:00,33.3,21.7,29.82,West,265,11.0,11.0,62,0.00,BKN,,0.02,79.0,WeatherDisplay:10.37,2013-01-04 20:19:00,
2013-01-04 15:24:00,33.4,21.4,29.82,WSW,253,11.5,11.5,61,0.00,BKN,,0.02,62.0,WeatherDisplay:10.37,2013-01-04 20:24:00,
2013-01-04 15:29:00,33.4,21.4,29.82,SW,222,5.8,5.8,61,0.00,BKN,,0.02,47.0,WeatherDisplay:10.37,2013-01-04 20:29:00,
2013-01-04 15:34:00,33.4,21.8,29.82,WSW,258,6.9,6.9,62,0.01,RA,,0.03,44.0,WeatherDisplay:10.37,2013-01-04 20:34:00,
2013-01-04 15:39:00,33.3,21.7,29.82,WSW,248,4.6,4.6,62,0.01,RA,,0.03,42.0,WeatherDisplay:10.37,2013-01-04 20:39:00,
2013-01-04 15:44:00,33.2,21.6,29.83,WSW,242,5.8,5.8,62,0.01,BKN,,0.03,37.0,WeatherDisplay:10.37,2013-01-04 20:44:00,
2013-01-04 15:49:00,33.0,21.8,29.83,SW,225,11.5,11.5,63,0.01,BKN,,0.03,39.0,WeatherDisplay:10.37,2013-01-04 20:49:00,
2013-01-04 15:54:00,32.9,21.7,29.83,WSW,237,5.0,5.0,63,0.01,BKN,,0.03,40.0,WeatherDisplay:10.37,2013-01-04 20:54:00,
2013-01-04 15:59:00,32.7,21.5,29.82,WSW,257,9.2,9.2,63,0.01,BKN,,0.03,26.0,WeatherDisplay:10.37,2013-01-04 20:59:00,
2013-01-04 16:04:00,32.6,21.8,29.82,SW,236,6.9,6.9,64,0.01,CLR,,0.03,23.0,WeatherDisplay:10.37,2013-01-04 21:04:00,
2013-01-04 16:09:00,32.5,21.7,29.82,SW,234,13.8,13.8,64,0.01,CLR,,0.03,18.0,WeatherDisplay:10.37,2013-01-04 21:09:00,
2013-01-04 16:14:00,32.4,21.6,29.82,WSW,240,16.1,16.1,64,0.01,CLR,,0.03,14.0,WeatherDisplay:10.37,2013-01-04 21:14:00,
2013-01-04 16:19:00,32.2,21.4,29.82,WSW,255,6.9,6.9,64,0.01,CLR,,0.03,7.0,WeatherDisplay:10.37,2013-01-04 21:19:00,
2013-01-04 16:24:00,32.1,21.7,29.82,West,265,6.9,6.9,65,0.01,CLR,,0.03,7.0,WeatherDisplay:10.37,2013-01-04 21:24:00,
2013-01-04 16:29:00,32.0,21.2,29.82,West,281,6.9,6.9,64,0.01,CLR,,0.03,0.0,WeatherDisplay:10.37,2013-01-04 21:29:00,
2013-01-04 16:34:00,31.8,21.0,29.82,WNW,284,6.9,6.9,64,0.00,CLR,,0.03,0.0,WeatherDisplay:10.37,2013-01-04 21:34:00,
2013-01-04 16:39:00,31.6,20.8,29.82,West,274,17.0,17.0,64,0.00,CLR,,0.03,0.0,WeatherDisplay:10.37,2013-01-04 21:39:00,
2013-01-04 16:44:00,31.6,20.8,29.82,West,277,12.7,12.7,64,0.00,CLR,,0.03,0.0,WeatherDisplay:10.37,2013-01-04 21:44:00,
2013-01-04 16:49:00,31.5,21.1,29.83,NNW,344,6.0,6.0,65,0.00,CLR,,0.03,0.0,WeatherDisplay:10.37,2013-01-04 21:49:00,
2013-01-04 16:54:00,31.4,21.0,29.82,WNW,303,3.5,3.5,65,0.00,CLR,,0.03,0.0,WeatherDisplay:10.37,2013-01-04 21:54:00,
2013-01-04 16:59:00,31.1,20.7,29.82,NNW,334,6.9,6.9,65,0.00,CLR,,0.03,0.0,WeatherDisplay:10.37,2013-01-04 21:59:00,
2013-01-04 17:04:00,31.0,20.6,29.83,WNW,300,3.5,3.5,65,0.00,CLR,,0.03,0.0,WeatherDisplay:10.37,2013-01-04 22:04:00,
2013-01-04 17:09:00,30.8,20.8,29.83,West,265,3.5,0.0,66,0.00,CLR,,0.03,0.0,WeatherDisplay:10.37,2013-01-04 22:09:00,
2013-01-04 17:14:00,30.7,20.7,29.83,West,276,10.4,10.4,66,0.00,CLR,,0.03,0.0,WeatherDisplay:10.37,2013-01-04 22:14:00,
2013-01-04 17:19:00,30.6,20.9,29.83,West,273,3.5,3.5,67,0.00,CLR,,0.03,0.0,WeatherDisplay:10.37,2013-01-04 22:19:00,
2013-01-04 17:24:00,30.5,21.2,29.83,West,280,7.0,7.0,68,0.00,CLR,,0.03,0.0,WeatherDisplay:10.37,2013-01-04 22:24:00,
2013-01-04 17:29:00,30.3,20.6,29.83,West,261,12.7,12.7,67,0.00,CLR,,0.03,0.0,WeatherDisplay:10.37,2013-01-04 22:29:00,
2013-01-04 17:34:00,30.2,20.9,29.83,WNW,287,4.6,4.6,68,0.00,CLR,,0.03,0.0,WeatherDisplay:10.37,2013-01-04 22:34:00,
2013-01-04 17:39:00,30.0,20.7,29.83,WSW,257,3.5,3.5,68,0.00,CLR,,0.03,0.0,WeatherDisplay:10.37,2013-01-04 22:39:00,
2013-01-04 17:44:00,30.0,21.1,29.83,WNW,290,13.8,13.8,69,0.00,CLR,,0.03,0.0,WeatherDisplay:10.37,2013-01-04 22:44:00,
2013-01-04 17:49:00,30.0,21.1,29.83,WNW,296,6.9,6.9,69,0.00,CLR,,0.03,0.0,WeatherDisplay:10.37,2013-01-04 22:49:00,
2013-01-04 17:54:00,30.0,21.1,29.83,WNW,295,6.9,6.9,69,0.00,CLR,,0.03,0.0,WeatherDisplay:10.37,2013-01-04 22:54:00,
2013-01-04 17:59:00,30.0,21.1,29.83,NNW,340,13.8,13.8,69,0.00,CLR,,0.03,0.0,WeatherDisplay:10.37,2013-01-04 22:59:00,
2013-01-04 18:04:00,30.0,21.1,29.83,WNW,300,11.5,11.5,69,0.00,CLR,,0.03,0.0,WeatherDisplay:10.37,2013-01-04 23:04:00,
2013-01-04 18:09:00,30.1,21.2,29.83,WNW,285,10.4,10.4,69,0.00,CLR,,0.03,0.0,WeatherDisplay:10.37,2013-01-04 23:09:00,
2013-01-04 18:14:00,30.2,21.2,29.83,West,281,11.5,11.5,69,0.00,CLR,,0.03,0.0,WeatherDisplay:10.37,2013-01-04 23:14:00,
2013-01-04 18:19:00,30.1,21.2,29.84,NW,313,5.8,5.8,69,0.00,CLR,,0.03,0.0,WeatherDisplay:10.37,2013-01-04 23:19:00,
2013-01-04 18:24:00,30.1,21.2,29.84,West,279,3.5,3.5,69,0.00,CLR,,0.03,0.0,WeatherDisplay:10.37,2013-01-04 23:24:00,
2013-01-04 18:29:00,30.0,21.1,29.84,SW,230,6.9,6.9,69,0.00,CLR,,0.03,0.0,WeatherDisplay:10.37,2013-01-04 23:29:00,
2013-01-04 18:34:00,29.9,21.0,29.84,WNW,293,6.9,6.9,69,0.00,CLR,,0.03,0.0,WeatherDisplay:10.37,2013-01-04 23:34:00,
2013-01-04 18:39:00,29.8,20.9,29.84,WNW,298,11.5,11.5,69,0.00,CLR,,0.03,0.0,WeatherDisplay:10.37,2013-01-04 23:39:00,
2013-01-04 18:44:00,29.8,20.9,29.84,WNW,292,3.5,3.5,69,0.00,CLR,,0.03,0.0,WeatherDisplay:10.37,2013-01-04 23:44:00,
2013-01-04 18:49:00,29.7,20.8,29.84,WNW,292,9.2,9.2,69,0.00,CLR,,0.03,0.0,WeatherDisplay:10.37,2013-01-04 23:49:00,
2013-01-04 18:54:00,29.6,21.0,29.84,WNW,288,9.2,9.2,70,0.00,CLR,,0.03,0.0,WeatherDisplay:10.37,2013-01-04 23:54:00,
2013-01-04 18:59:00,29.5,20.9,29.84,NW,309,9.2,9.2,70,0.00,CLR,,0.03,0.0,WeatherDisplay:10.37,2013-01-04 23:59:00,
2013-01-04 19:04:00,29.5,20.9,29.84,WNW,302,11.5,11.5,70,0.00,CLR,,0.03,0.0,WeatherDisplay:10.37,2013-01-05 00:04:00,
2013-01-04 19:09:00,29.4,20.8,29.84,WSW,245,11.5,11.5,70,0.00,CLR,,0.03,0.0,WeatherDisplay:10.37,2013-01-05 00:09:00,
2013-01-04 19:14:00,29.4,21.2,29.84,SW,217,8.1,8.1,71,0.00,CLR,,0.03,0.0,WeatherDisplay:10.37,2013-01-05 00:14:00,
2013-01-04 19:19:00,29.4,21.2,29.84,West,264,10.4,10.4,71,0.00,CLR,,0.03,0.0,WeatherDisplay:10.37,2013-01-05 00:19:00,
2013-01-04 19:24:00,29.4,21.2,29.84,WNW,298,6.9,6.9,71,0.00,CLR,,0.03,0.0,WeatherDisplay:10.37,2013-01-05 00:24:00,
2013-01-04 19:29:00,29.3,21.1,29.84,WNW,294,9.2,9.2,71,0.00,CLR,,0.03,0.0,WeatherDisplay:10.37,2013-01-05 00:29:00,
2013-01-04 19:34:00,29.4,20.8,29.84,WNW,284,5.8,5.8,70,0.00,CLR,,0.03,0.0,WeatherDisplay:10.37,2013-01-05 00:34:00,
2013-01-04 19:39:00,29.5,20.9,29.84,WNW,297,10.0,10.0,70,0.00,CLR,,0.03,0.0,WeatherDisplay:10.37,2013-01-05 00:39:00,
2013-01-04 19:44:00,29.6,20.7,29.85,West,273,17.3,17.3,69,0.00,CLR,,0.03,0.0,WeatherDisplay:10.37,2013-01-05 00:44:00,
2013-01-04 19:49:00,29.8,20.9,29.84,WNW,292,13.8,13.8,69,0.00,CLR,,0.03,0.0,WeatherDisplay:10.37,2013-01-05 00:49:00,
2013-01-04 19:54:00,29.8,20.9,29.84,WSW,252,16.1,16.1,69,0.00,CLR,,0.03,0.0,WeatherDisplay:10.37,2013-01-05 00:54:00,
2013-01-04 19:59:00,29.9,21.0,29.84,WNW,301,17.3,17.3,69,0.00,CLR,,0.03,0.0,WeatherDisplay:10.37,2013-01-05 00:59:00,
2013-01-04 20:04:00,29.9,20.6,29.84,WNW,296,13.8,13.8,68,0.00,CLR,,0.03,0.0,WeatherDisplay:10.37,2013-01-05 01:04:00,
2013-01-04 20:09:00,30.0,20.7,29.84,NW,311,15.0,15.0,68,0.00,CLR,,0.03,0.0,WeatherDisplay:10.37,2013-01-05 01:09:00,
2013-01-04 20:14:00,30.0,20.4,29.84,WSW,246,14.0,14.0,67,0.00,CLR,,0.03,0.0,WeatherDisplay:10.37,2013-01-05 01:14:00,
2013-01-04 20:19:00,30.1,20.5,29.84,West,278,6.9,6.9,67,0.00,CLR,,0.03,0.0,WeatherDisplay:10.37,2013-01-05 01:19:00,
2013-01-04 20:24:00,30.1,20.5,29.84,West,281,11.5,11.5,67,0.00,CLR,,0.03,0.0,WeatherDisplay:10.37,2013-01-05 01:24:00,
2013-01-04 20:29:00,30.2,20.2,29.84,WSW,240,18.4,18.4,66,0.00,CLR,,0.03,0.0,WeatherDisplay:10.37,2013-01-05 01:29:00,
2013-01-04 20:34:00,30.2,20.2,29.84,West,277,15.0,15.0,66,0.00,CLR,,0.03,0.0,WeatherDisplay:10.37,2013-01-05 01:34:00,
2013-01-04 20:39:00,30.2,20.6,29.84,WSW,252,11.5,11.5,67,0.00,CLR,,0.03,0.0,WeatherDisplay:10.37,2013-01-05 01:39:00,
2013-01-04 20:44:00,30.1,20.1,29.84,West,270,12.7,12.7,66,0.00,CLR,,0.03,0.0,WeatherDisplay:10.37,2013-01-05 01:44:00,
2013-01-04 20:49:00,30.1,20.1,29.84,WNW,283,15.0,15.0,66,0.00,CLR,,0.03,0.0,WeatherDisplay:10.37,2013-01-05 01:49:00,
2013-01-04 20:54:00,30.0,20.4,29.84,West,272,6.9,7.4,67,0.00,CLR,,0.03,0.0,WeatherDisplay:10.37,2013-01-05 01:54:00,
2013-01-04 20:59:00,30.1,20.1,29.84,NW,310,12.0,12.0,66,0.00,CLR,,0.03,0.0,WeatherDisplay:10.37,2013-01-05 01:59:00,
2013-01-04 21:04:00,30.1,20.1,29.84,WNW,290,11.5,11.5,66,0.00,CLR,,0.03,0.0,WeatherDisplay:10.37,2013-01-05 02:04:00,
2013-01-04 21:09:00,30.0,20.0,29.84,West,277,14.0,14.0,66,0.00,CLR,,0.03,0.0,WeatherDisplay:10.37,2013-01-05 02:09:00,
2013-01-04 21:14:00,30.0,20.0,29.84,WNW,297,15.0,15.0,66,0.00,CLR,,0.03,0.0,WeatherDisplay:10.37,2013-01-05 02:14:00,
2013-01-04 21:20:00,30.0,20.0,29.84,NW,311,12.7,12.7,66,0.00,CLR,,0.03,0.0,WeatherDisplay:10.37,2013-01-05 02:20:00,
2013-01-04 21:25:00,30.0,20.0,29.85,WNW,286,11.0,11.0,66,0.00,CLR,,0.03,0.0,WeatherDisplay:10.37,2013-01-05 02:25:00,
2013-01-04 21:30:00,30.0,20.0,29.84,West,259,10.4,10.4,66,0.00,CLR,,0.03,0.0,WeatherDisplay:10.37,2013-01-05 02:30:00,
2013-01-04 21:35:00,30.0,20.4,29.85,West,267,5.8,5.8,67,0.00,CLR,,0.03,0.0,WeatherDisplay:10.37,2013-01-05 02:35:00,
2013-01-04 21:40:00,29.9,20.3,29.84,WNW,288,16.1,16.1,67,0.00,CLR,,0.03,0.0,WeatherDisplay:10.37,2013-01-05 02:40:00,
2013-01-04 21:45:00,29.9,19.9,29.85,WSW,244,3.5,3.5,66,0.00,CLR,,0.03,0.0,WeatherDisplay:10.37,2013-01-05 02:45:00,
2013-01-04 21:50:00,29.9,20.3,29.85,WNW,296,10.4,10.4,67,0.00,CLR,,0.03,0.0,WeatherDisplay:10.37,2013-01-05 02:50:00,
2013-01-04 21:55:00,29.9,20.3,29.84,West,279,3.5,3.5,67,0.00,CLR,,0.03,0.0,WeatherDisplay:10.37,2013-01-05 02:55:00,
2013-01-04 22:00:00,29.9,19.9,29.85,WNW,291,8.1,8.1,66,0.00,CLR,,0.03,0.0,WeatherDisplay:10.37,2013-01-05 03:00:00,
2013-01-04 22:05:00,29.9,19.9,29.85,WNW,290,12.0,12.0,66,0.00,CLR,,0.03,0.0,WeatherDisplay:10.37,2013-01-05 03:05:00,
2013-01-04 22:10:00,30.0,20.0,29.83,SW,229,5.0,5.0,66,0.00,CLR,,0.03,0.0,WeatherDisplay:10.37,2013-01-05 03:10:00,
2013-01-04 22:15:00,30.0,20.0,29.83,WNW,296,12.7,12.7,66,0.00,CLR,,0.03,0.0,WeatherDisplay:10.37,2013-01-05 03:15:00,
2013-01-04 22:20:00,30.1,20.1,29.83,WNW,286,9.2,9.2,66,0.00,CLR,,0.03,0.0,WeatherDisplay:10.37,2013-01-05 03:20:00,
2013-01-04 22:25:00,30.1,20.1,29.83,WNW,293,13.8,13.8,66,0.00,CLR,,0.03,0.0,WeatherDisplay:10.37,2013-01-05 03:25:00,
2013-01-04 22:30:00,30.1,20.1,29.83,West,269,11.0,11.0,66,0.00,CLR,,0.03,0.0,WeatherDisplay:10.37,2013-01-05 03:30:00,
2013-01-04 22:35:00,30.0,20.0,29.83,West,274,10.4,10.4,66,0.00,CLR,,0.03,0.0,WeatherDisplay:10.37,2013-01-05 03:35:00,
2013-01-04 22:40:00,30.0,20.4,29.83,NNW,340,12.7,12.7,67,0.00,CLR,,0.03,0.0,WeatherDisplay:10.37,2013-01-05 03:40:00,
2013-01-04 22:45:00,30.0,20.4,29.83,West,268,13.8,13.8,67,0.00,CLR,,0.03,0.0,WeatherDisplay:10.37,2013-01-05 03:45:00,
2013-01-04 22:50:00,30.0,20.4,29.83,NW,306,5.8,5.8,67,0.00,CLR,,0.03,0.0,WeatherDisplay:10.37,2013-01-05 03:50:00,
2013-01-04 22:55:00,30.0,20.4,29.83,West,262,11.5,11.5,67,0.00,CLR,,0.03,0.0,WeatherDisplay:10.37,2013-01-05 03:55:00,
2013-01-04 23:00:00,29.9,20.3,29.83,NW,315,6.9,6.9,67,0.00,CLR,,0.03,0.0,WeatherDisplay:10.37,2013-01-05 04:00:00,
2013-01-04 23:05:00,29.9,20.6,29.83,WNW,283,15.0,15.0,68,0.00,CLR,,0.03,0.0,WeatherDisplay:10.37,2013-01-05 04:05:00,
2013-01-04 23:10:00,29.9,20.6,29.83,NW,323,19.6,19.6,68,0.00,CLR,,0.03,0.0,WeatherDisplay:10.37,2013-01-05 04:10:00,
2013-01-04 23:15:00,29.9,20.6,29.83,West,278,12.7,12.7,68,0.00,CLR,,0.03,0.0,WeatherDisplay:10.37,2013-01-05 04:15:00,
2013-01-04 23:20:00,29.8,20.9,29.83,West,281,16.1,16.1,69,0.00,CLR,,0.03,0.0,WeatherDisplay:10.37,2013-01-05 04:20:00,
2013-01-04 23:25:00,29.9,21.0,29.83,NW,320,15.0,15.0,69,0.00,CLR,,0.03,0.0,WeatherDisplay:10.37,2013-01-05 04:25:00,
2013-01-04 23:30:00,29.8,20.9,29.83,West,261,19.6,19.6,69,0.00,CLR,,0.03,0.0,WeatherDisplay:10.37,2013-01-05 04:30:00,
2013-01-04 23:35:00,29.8,21.2,29.83,West,262,23.0,23.0,70,0.00,CLR,,0.03,0.0,WeatherDisplay:10.37,2013-01-05 04:35:00,
2013-01-04 23:40:00,29.7,21.1,29.83,WSW,238,19.6,19.6,70,0.00,CLR,,0.03,0.0,WeatherDisplay:10.37,2013-01-05 04:40:00,
2013-01-04 23:45:00,29.7,21.1,29.83,West,274,5.8,5.8,70,0.00,CLR,,0.03,0.0,WeatherDisplay:10.37,2013-01-05 04:45:00,
2013-01-04 23:50:00,29.6,21.3,29.82,West,260,12.7,12.7,71,0.00,CLR,,0.03,0.0,WeatherDisplay:10.37,2013-01-05 04:50:00,
2013-01-04 23:55:00,29.6,21.3,29.83,WSW,246,19.6,19.6,71,0.00,CLR,,0.03,0.0,WeatherDisplay:10.37,2013-01-05 04:55:00,